FW6610 Weather Reports


time (UTC)temp
F
wind
direction
speed
knots
gust
knots
rain 1hr
in
rain 24hr
in
rain mn
in
humidity
%
barometer
mb
20260831182030 78 221 0.0 1.7 0.00 0.00 0.00 71 1020.3
20260831181550 77 14 0.0 0.9 0.00 0.00 0.00 69 1020.1
20260831181026 77 0 0.0 0.9 0.00 0.00 0.00 71 1020.2
20260831180529 77 189 0.0 0.9 0.00 0.00 0.00 71 1020.1
20260831180052 77 0 0.0 0.9 0.00 0.00 0.00 73 1020.1
20260831175530 76 0 0.0 0.9 0.00 0.00 0.00 73 1020.0
20260831175028 77 0 0.0 0.9 0.00 0.00 0.00 72 1019.9
20260831174550 76 0 0.0 1.7 0.00 0.00 0.00 68 1020.1
20260831174029 76 162 0.0 1.7 0.00 0.00 0.00 75 1020.2
20260831173528 76 53 0.0 1.7 0.00 0.00 0.00 70 1020.4
20260831173101 76 55 0.0 1.7 0.00 0.00 0.00 69 1020.5
20260831172529 76 0 0.0 1.7 0.00 0.00 0.00 72 1020.5
20260831172027 76 10 0.0 1.7 0.00 0.00 0.00 73 1020.4
20260831171554 75 11 0.0 1.7 0.00 0.00 0.00 69 1020.4
20260831171031 76 91 0.0 0.9 0.00 0.00 0.00 71 1020.6
20260831170528 76 0 0.0 0.9 0.00 0.00 0.00 71 1020.6
20260831170045 75 0 0.0 0.9 0.00 0.00 0.00 71 1020.7
20260831165530 75 35 0.0 0.9 0.00 0.00 0.00 73 1020.8
20260831165028 75 0 0.0 2.6 0.00 0.00 0.00 72 1020.8
20260831164553 75 323 0.9 2.6 0.00 0.00 0.00 68 1020.9
20260831164028 75 0 0.0 3.5 0.00 0.00 0.00 67 1020.9
20260831163528 76 0 0.9 3.5 0.00 0.00 0.00 69 1020.9
20260831163052 76 219 0.0 0.0 0.00 0.00 0.00 70 1021.0
20260831162528 75 0 0.0 0.9 0.00 0.00 0.00 69 1021.1
20260831162029 76 0 0.0 0.9 0.00 0.00 0.00 68 1021.0
20260831161613 76 185 0.0 1.7 0.00 0.00 0.00 67 1021.1
20260831161031 75 0 0.0 1.7 0.00 0.00 0.00 70 1021.3
20260831160530 76 253 0.9 1.7 0.00 0.00 0.00 67 1021.4
20260831160059 76 319 0.9 1.7 0.00 0.00 0.00 68 1021.6
20260831155533 75 0 0.9 1.7 0.00 0.00 0.00 68 1021.4
20260831155029 75 256 0.0 1.7 0.00 0.00 0.00 71 1021.2
20260831154612 75 258 0.0 1.7 0.00 0.00 0.00 70 1021.3
20260831154027 76 204 0.0 2.6 0.00 0.00 0.00 71 1021.4
20260831153531 75 0 0.0 2.6 0.00 0.00 0.00 75 1021.2
20260831153052 74 260 0.0 2.6 0.00 0.00 0.00 75 1021.3
20260831152530 73 0 0.0 2.6 0.00 0.00 0.00 75 1021.1
20260831152030 73 233 0.0 1.7 0.00 0.00 0.00 72 1021.3
20260831151546 73 164 0.0 0.9 0.00 0.00 0.00 78 1021.1
20260831151031 72 0 0.0 0.9 0.00 0.00 0.00 78 1021.2
20260831150530 72 0 0.0 2.6 0.00 0.00 0.00 76 1021.2
20260831150054 72 359 0.0 2.6 0.00 0.00 0.00 80 1021.4
20260831145529 72 326 0.9 2.6 0.00 0.00 0.00 74 1021.2
20260831145032 72 0 0.0 0.9 0.00 0.00 0.00 78 1021.2
20260831144553 71 0 0.0 3.5 0.00 0.00 0.00 81 1021.5
20260831144029 71 0 0.0 3.5 0.00 0.00 0.00 82 1021.4
20260831143529 71 297 1.7 3.5 0.00 0.00 0.00 78 1021.4
20260831143049 71 0 0.0 2.6 0.00 0.00 0.00 79 1021.4
20260831142530 70 0 0.0 2.6 0.00 0.00 0.00 80 1021.2
20260831142028 70 336 0.0 1.7 0.00 0.00 0.00 82 1021.3
20260831141558 70 322 0.0 1.7 0.00 0.00 0.00 82 1021.3
20260831141031 69 82 0.0 2.6 0.00 0.00 0.00 82 1021.3
20260831140531 69 245 0.0 6.1 0.00 0.00 0.00 82 1021.3
20260831140051 69 212 0.0 6.1 0.00 0.00 0.00 83 1021.3
20260831135529 69 48 1.7 6.1 0.00 0.00 0.00 85 1021.4
20260831135028 69 314 0.9 3.5 0.00 0.00 0.00 85 1021.2
20260831134548 68 0 0.0 2.6 0.00 0.00 0.00 88 1021.3
20260831134028 68 0 0.0 4.3 0.00 0.00 0.00 86 1021.2
20260831133528 68 0 0.9 4.3 0.00 0.00 0.00 89 1021.2
20260831133052 67 44 0.0 1.7 0.00 0.00 0.00 89 1021.2
20260831132531 67 314 0.0 1.7 0.00 0.00 0.00 90 1021.3
20260831132031 66 0 0.0 1.7 0.00 0.00 0.00 92 1021.3
20260831131549 66 0 0.0 1.7 0.00 0.00 0.00 93 1021.1
20260831131031 65 219 0.0 0.9 0.00 0.00 0.00 95 1021.2
20260831130529 64 252 0.0 0.9 0.00 0.00 0.00 96 1021.1
20260831130047 64 0 0.0 0.9 0.00 0.00 0.00 97 1021.4
20260831125529 64 1 0.0 0.9 0.00 0.00 0.00 98 1021.3
20260831125032 63 0 0.0 0.9 0.00 0.00 0.00 98 1021.3
20260831124553 63 0 0.0 0.9 0.00 0.00 0.00 99 1021.3
20260831124030 63 0 0.0 0.0 0.00 0.00 0.00 99 1021.3
20260831123529 62 0 0.0 0.0 0.00 0.00 0.00 98 1021.3
20260831123053 62 0 0.0 0.0 0.00 0.00 0.00 98 1021.2
20260831122530 62 0 0.0 0.0 0.00 0.00 0.00 99 1021.3
20260831122031 62 0 0.0 0.0 0.00 0.00 0.00 99 1021.3
20260831121548 61 0 0.0 0.0 0.00 0.00 0.00 99 1021.4
20260831121030 61 0 0.0 0.0 0.00 0.00 0.00 99 1021.4
20260831120529 61 0 0.0 0.0 0.00 0.00 0.00 99 1021.4
20260831120104 61 0 0.0 0.0 0.00 0.00 0.00 98 1021.3
20260831115528 60 0 0.0 0.0 0.00 0.00 0.00 98 1021.3
20260831115032 60 0 0.0 0.0 0.00 0.00 0.00 98 1021.2
20260831114554 60 0 0.0 0.0 0.00 0.00 0.00 98 1021.1
20260831114031 60 0 0.0 0.0 0.00 0.00 0.00 99 1021.0
20260831113530 60 0 0.0 0.0 0.00 0.00 0.00 99 1020.9
20260831113054 60 0 0.0 0.0 0.00 0.00 0.00 99 1020.9
20260831112530 59 0 0.0 0.0 0.00 0.00 0.00 98 1020.8
20260831112030 59 0 0.0 0.0 0.00 0.00 0.00 98 1020.8
20260831111554 59 0 0.0 0.0 0.00 0.00 0.00 98 1020.7
20260831111030 58 0 0.0 0.0 0.00 0.00 0.00 98 1020.6
20260831110535 58 0 0.0 0.0 0.00 0.00 0.00 98 1020.5
20260831110045 58 0 0.0 0.0 0.00 0.00 0.00 98 1020.5
20260831105532 58 0 0.0 0.0 0.00 0.00 0.00 98 1020.4
20260831105031 58 0 0.0 0.0 0.00 0.00 0.00 98 1020.3
20260831104603 58 0 0.0 0.0 0.00 0.00 0.00 98 1020.3
20260831104031 58 0 0.0 0.0 0.00 0.00 0.00 98 1020.3
20260831103530 58 0 0.0 0.0 0.00 0.00 0.00 98 1020.3
20260831103052 58 0 0.0 0.0 0.00 0.00 0.00 98 1020.2
20260831102531 58 0 0.0 0.0 0.00 0.00 0.00 98 1020.0
20260831102031 58 0 0.0 0.0 0.00 0.00 0.00 98 1019.9
20260831101550 58 0 0.0 0.0 0.00 0.00 0.00 97 1019.8
20260831101030 58 0 0.0 0.0 0.00 0.00 0.00 97 1019.9
20260831100529 58 0 0.0 0.0 0.00 0.00 0.00 97 1020.1
20260831100050 58 0 0.0 0.0 0.00 0.00 0.00 97 1020.1
20260831095529 58 0 0.0 0.0 0.00 0.00 0.00 97 1020.0
20260831095028 58 0 0.0 0.0 0.00 0.00 0.00 97 1020.1
20260831094543 58 0 0.0 0.0 0.00 0.00 0.00 97 1020.1
20260831094029 59 0 0.0 0.0 0.00 0.00 0.00 97 1019.9
20260831093528 59 0 0.0 0.0 0.00 0.00 0.00 97 1020.1
20260831093055 59 0 0.0 0.0 0.00 0.00 0.00 97 1019.9
20260831092532 59 0 0.0 0.0 0.00 0.00 0.00 97 1020.0
20260831092025 59 0 0.0 0.0 0.00 0.00 0.00 97 1020.1
20260831091545 59 0 0.0 0.0 0.00 0.00 0.00 97 1019.9
20260831091030 59 0 0.0 0.0 0.00 0.00 0.00 97 1019.9
20260831090531 59 0 0.0 0.0 0.00 0.00 0.00 97 1020.0
20260831090057 59 0 0.0 0.0 0.00 0.00 0.00 98 1019.8
20260831085530 59 0 0.0 0.0 0.00 0.00 0.00 97 1019.7
20260831085032 59 0 0.0 0.0 0.00 0.00 0.00 97 1019.6
20260831084558 59 0 0.0 0.0 0.00 0.00 0.00 97 1019.8
20260831084026 59 0 0.0 0.0 0.00 0.00 0.00 97 1019.6
20260831083530 59 0 0.0 0.0 0.00 0.00 0.00 97 1019.7
20260831083049 59 0 0.0 0.0 0.00 0.00 0.00 97 1019.6
20260831082528 59 0 0.0 0.0 0.00 0.00 0.00 97 1019.8
20260831082029 59 0 0.0 0.0 0.00 0.00 0.00 97 1019.8
20260831081547 59 0 0.0 0.0 0.00 0.00 0.00 97 1019.8
20260831081029 59 0 0.0 0.0 0.00 0.00 0.00 97 1019.6
20260831080528 59 0 0.0 0.0 0.00 0.00 0.00 97 1019.7
20260831080046 60 0 0.0 0.0 0.00 0.00 0.00 97 1019.7
20260831075527 60 0 0.0 0.0 0.00 0.00 0.00 97 1019.5
20260831075028 60 0 0.0 0.0 0.00 0.00 0.00 97 1019.6
20260831074554 60 0 0.0 0.0 0.00 0.00 0.00 97 1019.6
20260831074028 60 0 0.0 0.0 0.00 0.00 0.00 96 1019.6
20260831073528 60 0 0.0 0.0 0.00 0.00 0.00 96 1019.6
20260831073047 60 0 0.0 0.9 0.00 0.00 0.00 97 1019.6
20260831072529 60 0 0.0 0.9 0.00 0.00 0.00 97 1019.6
20260831072029 60 0 0.0 0.9 0.00 0.00 0.00 97 1019.5
20260831071544 60 0 0.0 0.9 0.00 0.00 0.00 97 1019.4
20260831071030 60 0 0.0 0.0 0.00 0.00 0.00 96 1019.4
20260831070528 60 0 0.0 0.0 0.00 0.00 0.00 96 1019.5
20260831070137 60 0 0.0 0.9 0.00 0.00 0.00 96 1019.4
20260831065533 60 0 0.0 0.9 0.00 0.00 0.00 96 1019.5
20260831065029 60 0 0.0 0.0 0.00 0.00 0.00 96 1019.4
20260831064551 60 0 0.0 0.0 0.00 0.00 0.00 96 1019.3
20260831064029 60 0 0.0 0.0 0.00 0.00 0.00 96 1019.4
20260831063530 60 0 0.0 0.0 0.00 0.00 0.00 96 1019.4
20260831063049 60 0 0.0 0.0 0.00 0.00 0.00 95 1019.3
20260831062529 61 0 0.0 0.0 0.00 0.00 0.00 95 1019.4
20260831062031 61 0 0.0 0.0 0.00 0.00 0.00 95 1019.5
20260831061602 61 0 0.0 0.9 0.00 0.00 0.00 95 1019.5
20260831061028 61 210 0.0 0.9 0.00 0.00 0.00 95 1019.4
20260831060530 61 0 0.0 0.0 0.00 0.00 0.00 95 1019.4
20260831060107 61 0 0.0 0.0 0.00 0.00 0.00 94 1019.3
20260831055530 62 0 0.0 0.0 0.00 0.00 0.00 94 1019.3
20260831055033 62 211 0.0 0.0 0.00 0.00 0.00 94 1019.1
20260831054553 62 0 0.0 0.0 0.00 0.00 0.00 94 1019.1
20260831054032 62 0 0.0 0.0 0.00 0.00 0.00 94 1019.1
20260831053529 62 0 0.0 0.0 0.00 0.00 0.00 93 1019.1
20260831053059 62 0 0.0 0.0 0.00 0.00 0.00 93 1019.0
20260831052529 63 0 0.0 0.0 0.00 0.00 0.00 92 1018.9
20260831052030 63 0 0.0 0.0 0.00 0.00 0.00 92 1018.9
20260831051557 63 0 0.0 0.0 0.00 0.00 0.00 92 1018.9
20260831051029 63 0 0.0 0.0 0.00 0.00 0.00 91 1019.0
20260831050531 64 0 0.0 0.0 0.00 0.00 0.00 91 1018.9
20260831050112 64 0 0.0 0.0 0.00 0.00 0.00 91 1018.8
20260831045532 64 0 0.0 0.0 0.00 0.00 0.00 91 1018.9
20260831045032 64 0 0.0 0.0 0.00 0.00 0.00 90 1019.0
20260831044559 64 0 0.0 0.0 0.00 0.00 0.00 90 1018.8
20260831044030 64 0 0.0 0.0 0.00 0.00 0.00 90 1019.0
20260831043527 65 0 0.0 0.9 0.00 0.00 0.00 89 1018.9
20260831043054 65 0 0.0 0.9 0.00 0.00 0.00 89 1018.7
20260831042530 65 0 0.0 0.9 0.00 0.00 0.00 88 1018.7
20260831042031 66 0 0.0 1.7 0.00 0.00 0.00 88 1018.5
20260831041546 66 0 0.0 1.7 0.00 0.00 0.00 87 1018.7
20260831041030 66 0 0.0 0.9 0.00 0.00 0.00 86 1018.6
20260831040530 67 0 0.0 0.9 0.00 0.00 0.00 86 1018.6
20260831040045 67 0 0.0 0.9 0.00 0.00 0.00 85 1018.6
20260831035530 67 0 0.0 0.9 0.00 0.00 0.00 85 1018.6
20260831035029 67 0 0.0 3.5 0.00 0.00 0.00 84 1018.6
20260831034549 68 0 0.0 3.5 0.00 0.00 0.00 84 1018.6
20260831034029 68 0 0.9 3.5 0.00 0.00 0.00 84 1018.7
20260831033529 68 207 0.0 0.9 0.00 0.00 0.00 84 1018.6
20260831033104 68 0 0.0 0.9 0.00 0.00 0.00 82 1018.8
20260831032530 69 0 0.0 3.5 0.00 0.00 0.00 82 1018.7
20260831032029 69 0 0.0 3.5 0.00 0.00 0.00 81 1018.7
20260831031546 70 260 0.0 3.5 0.00 0.00 0.00 80 1018.7
20260831031031 70 63 0.9 2.6 0.00 0.00 0.00 79 1018.5
20260831030530 70 276 0.0 6.1 0.00 0.00 0.00 79 1018.7
20260831030046 70 204 0.9 6.1 0.00 0.00 0.00 80 1018.5
20260831025532 70 282 0.0 1.7 0.00 0.00 0.00 80 1018.6
20260831025030 70 0 0.0 3.5 0.00 0.00 0.00 80 1018.5
20260831024554 70 146 0.0 5.2 0.00 0.00 0.00 81 1018.6
20260831024033 71 34 1.7 5.2 0.00 0.00 0.00 79 1018.7
20260831023529 71 303 1.7 4.3 0.00 0.00 0.00 79 1018.5
20260831023050 71 333 0.9 4.3 0.00 0.00 0.00 79 1018.7
20260831022528 71 298 0.9 4.3 0.00 0.00 0.00 80 1018.6
20260831022031 71 350 0.9 7.0 0.00 0.00 0.00 79 1018.5
20260831021555 71 32 1.7 7.0 0.00 0.00 0.00 79 1018.3
20260831021034 71 264 0.9 6.1 0.00 0.00 0.00 79 1018.7
20260831020531 72 304 2.6 7.0 0.00 0.00 0.00 78 1018.6
20260831020109 72 274 2.6 10.4 0.00 0.00 0.00 78 1018.6
20260831015531 72 274 2.6 10.4 0.00 0.00 0.00 78 1018.7
20260831015030 72 292 2.6 10.4 0.00 0.00 0.00 78 1018.4
20260831014553 72 310 1.7 10.4 0.00 0.00 0.00 79 1018.4
20260831014030 72 325 2.6 8.7 0.00 0.00 0.00 79 1018.4
20260831013529 72 341 1.7 7.8 0.00 0.00 0.00 79 1018.2
20260831013048 72 27 1.7 5.2 0.00 0.00 0.00 79 1018.1
20260831012530 72 345 1.7 4.3 0.00 0.00 0.00 80 1018.1
20260831012028 72 43 1.7 4.3 0.00 0.00 0.00 80 1018.2
20260831011548 72 1 1.7 4.3 0.00 0.00 0.00 81 1018.2
20260831011029 71 0 0.0 1.7 0.00 0.00 0.00 83 1018.2
20260831010529 71 0 0.0 1.7 0.00 0.00 0.00 83 1018.1
20260831010056 71 0 0.0 1.7 0.00 0.00 0.00 84 1018.2
20260831005528 71 202 0.0 1.7 0.00 0.00 0.00 85 1018.0
20260831005030 71 0 0.0 2.6 0.00 0.00 0.00 87 1018.0
20260831004557 71 0 0.0 2.6 0.00 0.00 0.00 88 1018.0
20260831004032 70 0 0.0 1.7 0.00 0.00 0.00 89 1018.0
20260831003530 71 0 0.0 0.0 0.00 0.00 0.00 89 1017.9
20260831003048 71 0 0.0 0.0 0.00 0.00 0.00 88 1017.7
20260831002529 71 0 0.0 0.0 0.00 0.00 0.00 88 1017.7
20260831002027 71 0 0.0 0.0 0.00 0.00 0.00 88 1017.6
20260831001546 71 0 0.0 0.0 0.00 0.00 0.00 88 1017.5
20260831001032 71 0 0.0 0.0 0.00 0.00 0.00 89 1017.7
20260831000531 71 0 0.0 0.0 0.00 0.00 0.00 89 1017.5
20260831000047 71 0 0.0 0.0 0.00 0.00 0.00 88 1017.4
20260830235527 71 0 0.0 0.0 0.00 0.00 0.00 87 1017.2
20260830235031 71 0 0.0 0.0 0.00 0.00 0.00 87 1017.2
20260830234551 71 0 0.0 0.0 0.00 0.00 0.00 87 1017.2
20260830234030 71 0 0.0 0.0 0.00 0.00 0.00 87 1017.3
20260830233530 71 0 0.0 0.0 0.00 0.00 0.00 87 1017.3
20260830233047 71 0 0.0 0.0 0.00 0.00 0.00 87 1017.3
20260830232530 71 0 0.0 0.0 0.00 0.00 0.00 86 1017.3
20260830232030 72 0 0.0 0.0 0.00 0.00 0.00 86 1017.3
20260830231546 72 0 0.0 0.0 0.00 0.00 0.00 86 1017.4
20260830231029 72 0 0.0 0.0 0.00 0.00 0.00 86 1017.3
20260830230532 72 0 0.0 0.0 0.00 0.00 0.00 85 1017.3
20260830230053 72 0 0.0 0.0 0.00 0.00 0.00 84 1017.2
20260830225530 73 0 0.0 0.0 0.00 0.00 0.00 83 1017.2
20260830225031 73 0 0.0 0.0 0.00 0.00 0.00 83 1017.5
20260830224549 73 0 0.0 0.0 0.00 0.00 0.00 82 1017.5
20260830224027 73 0 0.0 0.0 0.00 0.00 0.00 82 1017.4
20260830223530 74 0 0.0 0.0 0.00 0.00 0.00 81 1017.4
20260830223045 74 0 0.0 0.0 0.00 0.00 0.00 81 1017.3
20260830222530 74 0 0.0 0.0 0.00 0.00 0.00 81 1017.3
20260830222029 74 0 0.0 0.0 0.00 0.00 0.00 80 1017.3
20260830221553 75 0 0.0 0.0 0.00 0.00 0.00 80 1017.2
20260830221027 75 0 0.0 0.0 0.00 0.00 0.00 79 1017.3
20260830220531 75 0 0.0 0.0 0.00 0.00 0.00 79 1017.2
20260830220101 76 0 0.0 0.0 0.00 0.00 0.00 78 1017.2
20260830215530 76 0 0.0 0.9 0.00 0.00 0.00 78 1017.4
20260830215030 76 0 0.0 4.3 0.00 0.00 0.00 78 1017.4
20260830214548 77 95 0.0 4.3 0.00 0.00 0.00 77 1017.4
20260830214030 77 77 0.9 4.3 0.00 0.00 0.00 75 1017.4
20260830213530 77 0 0.0 0.9 0.00 0.00 0.00 76 1017.5
20260830213046 78 210 0.0 0.9 0.00 0.00 0.00 78 1017.5
20260830212530 77 0 0.0 0.9 0.00 0.00 0.00 76 1017.5
20260830212030 77 0 0.0 0.9 0.00 0.00 0.00 78 1017.4
20260830211542 77 0 0.0 0.9 0.00 0.00 0.00 78 1017.5
20260830211031 77 0 0.0 0.9 0.00 0.00 0.00 77 1017.6
20260830210530 77 0 0.0 1.7 0.00 0.00 0.00 77 1017.5
20260830210054 77 0 0.0 2.6 0.00 0.00 0.00 79 1017.7
20260830205531 77 0 0.0 2.6 0.00 0.00 0.00 77 1017.6
20260830205029 77 0 0.0 0.9 0.00 0.00 0.00 76 1017.7
20260830204553 77 0 0.0 0.9 0.00 0.00 0.00 77 1017.6
20260830204029 77 0 0.0 1.7 0.00 0.00 0.00 76 1017.7
20260830203531 77 0 0.0 1.7 0.00 0.00 0.00 75 1017.7
20260830203049 77 0 0.0 1.7 0.00 0.00 0.00 74 1017.7
20260830202530 77 355 0.0 0.9 0.00 0.00 0.00 75 1017.6
20260830202030 77 0 0.0 0.9 0.00 0.00 0.00 77 1017.7
20260830201546 76 0 0.0 0.9 0.00 0.00 0.00 76 1017.6
20260830201032 77 0 0.0 0.0 0.00 0.00 0.00 76 1017.7
20260830200530 77 0 0.0 0.9 0.00 0.00 0.00 74 1017.8
20260830200045 77 0 0.0 0.9 0.00 0.00 0.00 76 1017.8
20260830195529 77 0 0.0 0.9 0.00 0.00 0.00 74 1017.9
20260830195031 77 110 0.0 0.9 0.00 0.00 0.00 76 1017.9
20260830194553 76 110 0.0 1.7 0.00 0.00 0.00 74 1017.9
20260830194030 76 134 0.0 1.7 0.00 0.00 0.00 75 1018.0
20260830193530 76 0 0.0 0.9 0.00 0.00 0.00 75 1017.9
20260830193048 75 160 0.0 0.9 0.00 0.00 0.00 75 1018.0
20260830192529 75 0 0.0 0.9 0.00 0.00 0.00 75 1018.0
20260830192032 75 0 0.0 0.0 0.00 0.00 0.00 75 1018.1
20260830191555 75 0 0.0 0.0 0.00 0.00 0.00 75 1018.1
20260830191029 75 0 0.0 0.0 0.00 0.00 0.00 76 1018.2
20260830190527 75 0 0.0 0.0 0.00 0.00 0.00 76 1018.3
20260830190103 75 0 0.0 0.0 0.00 0.00 0.00 77 1018.3
20260830185527 75 0 0.0 0.0 0.00 0.00 0.00 74 1018.4
20260830185029 76 0 0.0 0.0 0.00 0.00 0.00 73 1018.5
20260830184549 76 0 0.0 0.9 0.00 0.00 0.00 71 1018.6
20260830184029 76 0 0.0 0.9 0.00 0.00 0.00 72 1018.6
20260830183529 76 0 0.0 0.9 0.00 0.00 0.00 70 1018.6
20260830183046 77 133 0.0 1.7 0.00 0.00 0.00 72 1018.7
20260830182531 77 0 0.0 1.7 0.00 0.00 0.00 71 1018.9